Location: Archemont
(49.1579°N, 1.7598°E)
Time: 09:59:00
(UTC+00:00)

deb Explorer IX - Pass Details

Date: 14 April 2024
Orbit: 513 x 891 km, 38.7° (Epoch: 23 May)

Event Time Altitude Azimuth Distance (km) Brightness Sun altitude
Rises 14:34:14 0° 238° (WSW) 3,517 ? 38.3°
Reaches altitude 10° 14:37:11 10° 228° (SW) 2,564 ? 37.9°
Maximum altitude 14:42:19 28° 172° (S) 1,571 ? 37.2°
Drops below altitude 10° 14:47:13 10° 115° (ESE) 2,433 ? 36.5°
Sets 14:49:57 0° 104° (ESE) 3,307 ? 36.2°
